TimeCST,TemperatureF,Dew PointF,Humidity,Sea Level PressureIn,VisibilityMPH,Wind Direction,Wind SpeedMPH,Gust SpeedMPH,PrecipitationIn,Events,Conditions,WindDirDegrees,DateUTC
12:11 AM,12.2,6.8,79,29.73,1.0,WNW,32.2,38.0,0.00,Snow,Light Snow,300,2013-01-12 06:11:00
12:19 AM,10.4,6.8,85,29.74,0.5,WNW,31.1,-,0.00,Fog-Snow,Light Snow,300,2013-01-12 06:19:00
12:53 AM,10.9,6.1,81,29.84,0.5,NW,26.5,-,0.00,Snow,Snow,320,2013-01-12 06:53:00
1:53 AM,10.9,7.0,84,29.86,0.5,NW,25.3,-,0.00,Fog-Snow,Snow,310,2013-01-12 07:53:00
2:53 AM,10.9,6.1,81,29.90,0.8,NW,26.5,36.8,0.00,Snow,Light Snow,310,2013-01-12 08:53:00
3:03 AM,10.4,6.8,85,29.82,1.0,NW,24.2,33.4,0.00,Snow,Light Snow,310,2013-01-12 09:03:00
3:12 AM,10.4,5.0,79,29.82,0.8,NW,29.9,35.7,0.00,Snow,Light Snow,310,2013-01-12 09:12:00
3:31 AM,10.4,5.0,79,29.83,1.0,NW,25.3,33.4,0.00,Snow,Light Snow,310,2013-01-12 09:31:00
3:46 AM,10.4,5.0,79,29.83,0.8,NW,31.1,38.0,0.00,Snow,Light Snow,310,2013-01-12 09:46:00
3:53 AM,10.0,5.0,80,29.93,0.8,NW,31.1,38.0,0.00,Snow,Light Snow,320,2013-01-12 09:53:00
4:08 AM,8.6,3.2,79,29.85,1.0,NW,24.2,34.5,0.00,Snow,Light Snow,320,2013-01-12 10:08:00
4:24 AM,8.6,3.2,79,29.85,0.8,NW,24.2,33.4,0.00,Snow,Light Snow,320,2013-01-12 10:24:00
4:35 AM,8.6,3.2,79,29.86,1.2,NNW,27.6,33.4,0.00,Snow,Light Snow,330,2013-01-12 10:35:00
4:45 AM,8.6,3.2,79,29.86,0.8,NW,24.2,33.4,0.00,Snow,Light Snow,320,2013-01-12 10:45:00
4:53 AM,9.0,3.9,80,29.96,0.8,NW,28.8,35.7,0.00,Snow,Light Snow,320,2013-01-12 10:53:00
5:05 AM,8.6,3.2,79,29.87,0.8,NNW,26.5,34.5,0.00,Snow,Light Snow,330,2013-01-12 11:05:00
5:31 AM,8.6,3.2,79,29.88,0.8,NNW,24.2,35.7,0.00,Snow,Light Snow,330,2013-01-12 11:31:00
5:38 AM,8.6,3.2,79,29.88,1.5,NNW,21.9,29.9,0.00,Snow,Light Snow,330,2013-01-12 11:38:00
5:53 AM,8.1,3.0,80,29.99,2.5,NNW,17.3,-,0.00,Snow,Light Snow,330,2013-01-12 11:53:00
6:09 AM,8.6,3.2,79,29.89,1.8,NNW,17.3,-,0.00,Snow,Light Snow,340,2013-01-12 12:09:00
6:21 AM,8.6,3.2,79,29.90,0.8,NNW,12.7,-,0.00,Snow,Light Snow,330,2013-01-12 12:21:00
6:24 AM,8.6,3.2,79,29.90,1.0,NNW,12.7,-,0.00,Snow,Light Snow,330,2013-01-12 12:24:00
6:30 AM,8.6,3.2,79,29.90,0.8,NW,15.0,-,0.00,Snow,Light Snow,320,2013-01-12 12:30:00
6:44 AM,8.6,3.2,79,29.91,1.5,NNW,17.3,29.9,0.00,Snow,Light Snow,330,2013-01-12 12:44:00
6:53 AM,8.1,3.9,83,30.01,1.2,NW,18.4,-,0.00,Snow,Light Snow,320,2013-01-12 12:53:00
6:59 AM,8.6,3.2,79,29.92,0.8,NW,21.9,27.6,0.00,Snow,Light Snow,320,2013-01-12 12:59:00
7:05 AM,8.6,3.2,79,29.92,1.0,NW,23.0,28.8,0.00,Snow,Light Snow,320,2013-01-12 13:05:00
7:24 AM,8.6,1.4,73,29.94,2.0,NNW,19.6,-,0.00,Snow,Light Snow,330,2013-01-12 13:24:00
7:35 AM,8.6,1.4,73,29.94,3.0,NW,19.6,-,0.00,Snow,Light Snow,320,2013-01-12 13:35:00
7:53 AM,7.0,1.9,80,30.05,2.5,NNW,26.5,31.1,0.00,Snow,Blowing Snow,330,2013-01-12 13:53:00
8:08 AM,6.8,1.4,79,29.96,1.8,NNW,19.6,-,0.00,Snow,Light Snow,330,2013-01-12 14:08:00
8:15 AM,6.8,3.2,85,29.96,2.0,NW,19.6,-,0.00,Snow,Light Snow,320,2013-01-12 14:15:00
8:24 AM,6.8,1.4,79,29.97,1.8,NW,18.4,-,0.00,Snow,Light Snow,320,2013-01-12 14:24:00
8:53 AM,7.0,1.9,80,30.09,1.0,NNW,20.7,29.9,0.00,Snow,Light Snow,330,2013-01-12 14:53:00
9:11 AM,6.8,1.4,79,29.99,1.5,NW,23.0,28.8,0.00,Snow,Light Snow,320,2013-01-12 15:11:00
9:53 AM,7.0,1.9,80,30.11,0.8,NW,27.6,33.4,0.00,Snow,Light Snow,320,2013-01-12 15:53:00
10:09 AM,6.8,1.4,79,30.02,1.0,NNW,21.9,29.9,0.00,Snow,Light Snow,330,2013-01-12 16:09:00
10:17 AM,8.6,3.2,79,30.02,0.8,NNW,18.4,-,0.00,Snow,Light Snow,330,2013-01-12 16:17:00
10:42 AM,6.8,1.4,79,30.05,1.0,NW,23.0,-,0.00,Snow,Light Snow,320,2013-01-12 16:42:00
10:50 AM,8.6,1.4,73,30.05,0.8,NW,26.5,32.2,0.00,Snow,Light Snow,320,2013-01-12 16:50:00
11:53 AM,8.1,1.9,76,30.17,0.8,NNW,24.2,31.1,0.00,Snow,Light Snow,330,2013-01-12 17:53:00
12:24 PM,8.6,3.2,79,30.06,0.5,NW,24.2,29.9,0.00,Snow,Snow,320,2013-01-12 18:24:00
12:53 PM,9.0,3.9,80,30.17,0.5,NNW,24.2,31.1,0.00,Snow,Snow,330,2013-01-12 18:53:00
1:45 PM,8.6,3.2,79,30.06,1.0,NNW,21.9,31.1,0.00,Snow,Light Snow,330,2013-01-12 19:45:00
1:53 PM,9.0,3.0,77,30.17,1.5,NNW,23.0,-,0.00,Snow,Light Snow,330,2013-01-12 19:53:00
2:05 PM,8.6,3.2,79,30.07,2.0,NNW,19.6,-,0.00,Snow,Light Snow,330,2013-01-12 20:05:00
2:53 PM,10.0,3.0,73,30.20,3.0,NNW,23.0,28.8,0.00,Snow,Light Snow,330,2013-01-12 20:53:00
3:53 PM,10.0,1.9,70,30.21,7.0,NNW,18.4,-,0.00,,Overcast,330,2013-01-12 21:53:00
4:53 PM,9.0,1.0,70,30.22,10.0,NNW,17.3,-,N/A,,Overcast,330,2013-01-12 22:53:00
5:53 PM,9.0,1.0,70,30.20,9.0,NNW,21.9,-,N/A,,Overcast,330,2013-01-12 23:53:00
7:53 PM,7.0,-2.0,67,30.25,10.0,NNW,15.0,-,N/A,,Overcast,330,2013-01-13 01:53:00
8:53 PM,6.1,-2.9,67,30.26,10.0,NNW,12.7,-,N/A,,Partly Cloudy,340,2013-01-13 02:53:00
9:53 PM,5.0,-2.9,70,30.29,10.0,NNW,10.4,-,N/A,,Overcast,330,2013-01-13 03:53:00
10:53 PM,1.9,-5.1,72,30.30,10.0,NNW,5.8,-,N/A,,Mostly Cloudy,330,2013-01-13 04:53:00
11:53 PM,1.9,-5.1,72,30.29,10.0,NW,8.1,-,N/A,,Scattered Clouds,320,2013-01-13 05:53:00